, AK

(GMT )
Denali Park

Weather History for PAIN - August, 2013

Change the Weather History Date:

Wednesday, August 14, 2013

  Actual Average Record
Temperature  
Mean Temperature 59 °F -  
Max Temperature 68 °F 61 °F 80 °F (1977)
Min Temperature 50 °F 39 °F 22 °F (1969)
Degree Days  
Heating Degree Days 6    
Growing Degree Days 9 (Base 50)    
Moisture  
Dew Point 49 °F    
Average Humidity 71    
Maximum Humidity 94    
Minimum Humidity 49    
Precipitation  
Precipitation 0.00 in - - ()
Sea Level Pressure  
Sea Level Pressure 29.91 in    
Wind  
Wind Speed 3 mph (NNE)    
Max Wind Speed 15 mph    
Max Gust Speed 24 mph    
Visibility 10 miles    
Events      
Averages and records for this station are not official NWS values.
T = Trace of Precipitation, MM = Missing Value Source: NWS Daily Summary

Daily Weather History Graph

Daily Weather History Graph

Search for Another Location

Airport or City:

Trip Planner

Search our weather history database for the weather conditions in past years. The results will help you decide how hot, cold, wet, or windy it might be!

Date:

Astronomy

Aug. 14, 2013 Rise Set
Actual Time 5:47 AM AKDT 10:10 PM AKDT
Civil Twilight 4:43 AM AKDT 11:13 PM AKDT
Nautical Twilight 2:11 AM AKDT 1:22 AM AKDT
Astronomical Twilight Sun does not set Sun does not set
Moon 5:07 PM AKDT (8/14) 11:30 PM AKDT (8/14)
Length of Visible Light 18h 29m
Length of Day
16h 22m
First Quarter, 54% of the Moon is Illuminated
Aug 14
First Quarter
Aug 20
Full
Aug 28
Last Quarter
Sep 5
New
Sep 12
First Quarter

Hourly Weather History & Observations

Time (AKDT) Temp. Dew Point Humidity Pressure Visibility Wind Dir Wind Speed Gust Speed Precip Events Conditions
12:16 AM 55.4 °F 50.0 °F 82% 29.90 in 10.0 mi Calm Calm - N/A   Unknown
12:36 AM 55.4 °F 50.0 °F 82% 29.91 in 10.0 mi Calm Calm - N/A   Unknown
12:56 AM 53.6 °F 50.0 °F 88% 29.91 in 10.0 mi SSW 3.5 mph - N/A   Unknown
1:16 AM 53.6 °F 50.0 °F 88% 29.91 in 10.0 mi SSW 3.5 mph - N/A   Unknown
1:36 AM 53.6 °F 50.0 °F 88% 29.91 in 10.0 mi Calm Calm - N/A   Unknown
1:56 AM 53.6 °F 48.2 °F 82% 29.91 in 10.0 mi Calm Calm - N/A   Unknown
2:16 AM 51.8 °F 50.0 °F 94% 29.91 in 10.0 mi Calm Calm - N/A   Unknown
2:36 AM 51.8 °F 48.2 °F 88% 29.91 in 10.0 mi Calm Calm - N/A   Unknown
2:56 AM 53.6 °F 48.2 °F 82% 29.91 in 10.0 mi Calm Calm - N/A   Unknown
3:16 AM 51.8 °F 48.2 °F 88% 29.92 in 10.0 mi Calm Calm - N/A   Unknown
3:36 AM 51.8 °F 48.2 °F 88% 29.91 in 10.0 mi Calm Calm - N/A   Unknown
3:56 AM 50.0 °F 48.2 °F 94% 29.92 in 10.0 mi Calm Calm - N/A   Unknown
4:16 AM 51.8 °F 48.2 °F 88% 29.92 in 10.0 mi Calm Calm - N/A   Unknown
4:36 AM 51.8 °F 48.2 °F 88% 29.92 in 10.0 mi Calm Calm - N/A   Unknown
4:56 AM 51.8 °F 48.2 °F 88% 29.92 in 10.0 mi Calm Calm - N/A   Unknown
5:16 AM 53.6 °F 50.0 °F 88% 29.93 in 10.0 mi East 3.5 mph - N/A   Unknown
5:36 AM 51.8 °F 48.2 °F 88% 29.93 in 10.0 mi SW 3.5 mph - N/A   Unknown
5:56 AM 51.8 °F 48.2 °F 88% 29.94 in 10.0 mi Calm Calm - N/A   Unknown
6:16 AM 53.6 °F 50.0 °F 88% 29.94 in 10.0 mi Calm Calm - N/A   Unknown
6:36 AM 55.4 °F 50.0 °F 82% 29.94 in 10.0 mi Calm Calm - N/A   Unknown
6:56 AM 53.6 °F 51.8 °F 94% 29.94 in 10.0 mi Calm Calm - N/A   Unknown
7:16 AM 55.4 °F 50.0 °F 82% 29.94 in 10.0 mi Calm Calm - N/A   Unknown
7:36 AM 57.2 °F 51.8 °F 82% 29.94 in 10.0 mi Calm Calm - N/A   Unknown
7:56 AM 57.2 °F 51.8 °F 82% 29.95 in 10.0 mi Calm Calm - N/A   Unknown
8:16 AM 57.2 °F 51.8 °F 82% 29.95 in 10.0 mi Calm Calm - N/A   Unknown
8:36 AM 57.2 °F 51.8 °F 82% 29.95 in 10.0 mi East 4.6 mph - N/A   Unknown
8:56 AM 57.2 °F 51.8 °F 82% 29.95 in 10.0 mi Calm Calm - N/A   Unknown
9:16 AM 57.2 °F 51.8 °F 82% 29.95 in 10.0 mi Calm Calm - N/A   Unknown
9:36 AM 59.0 °F 51.8 °F 77% 29.95 in 10.0 mi ESE 3.5 mph - N/A   Unknown
9:56 AM 60.8 °F 51.8 °F 72% 29.94 in 10.0 mi Calm Calm - N/A   Unknown
10:16 AM 60.8 °F 50.0 °F 68% 29.94 in 10.0 mi Calm Calm - N/A   Unknown
10:36 AM 60.8 °F 50.0 °F 68% 29.94 in 10.0 mi Calm Calm - N/A   Unknown
10:56 AM 62.6 °F 50.0 °F 63% 29.94 in 10.0 mi ENE 3.5 mph - N/A   Unknown
11:56 AM 64.4 °F 50.0 °F 59% 29.93 in 10.0 mi NNE 9.2 mph - N/A   Unknown
12:16 PM 62.6 °F 50.0 °F 63% 29.93 in 10.0 mi North 9.2 mph - N/A   Unknown
12:36 PM 64.4 °F 50.0 °F 59% 29.92 in 10.0 mi North 9.2 mph - N/A   Unknown
12:56 PM 64.4 °F 50.0 °F 59% 29.92 in 10.0 mi NNE 9.2 mph - N/A   Unknown
1:16 PM 64.4 °F 48.2 °F 56% 29.92 in 10.0 mi North 9.2 mph 16.1 mph N/A   Unknown
1:36 PM 64.4 °F 48.2 °F 56% 29.91 in 10.0 mi NNE 9.2 mph - N/A   Unknown
1:56 PM 66.2 °F 48.2 °F 52% 29.91 in 10.0 mi NNE 9.2 mph - N/A   Unknown
2:16 PM 66.2 °F 48.2 °F 52% 29.90 in 10.0 mi NNE 9.2 mph 18.4 mph N/A   Unknown
2:36 PM 68.0 °F 48.2 °F 49% 29.90 in 10.0 mi North 12.7 mph 16.1 mph N/A   Unknown
2:56 PM 66.2 °F 48.2 °F 52% 29.89 in 10.0 mi NNE 13.8 mph 19.6 mph N/A   Unknown
3:16 PM 66.2 °F 48.2 °F 52% 29.89 in 10.0 mi NNE 9.2 mph 17.3 mph N/A   Unknown
3:36 PM 66.2 °F 48.2 °F 52% 29.88 in 10.0 mi NNE 11.5 mph 18.4 mph N/A   Unknown
3:56 PM 66.2 °F 48.2 °F 52% 29.88 in 10.0 mi NNE 15.0 mph 20.7 mph N/A   Unknown
4:16 PM 64.4 °F 48.2 °F 56% 29.88 in 10.0 mi NNE 15.0 mph 24.2 mph N/A   Unknown
4:36 PM 64.4 °F 48.2 °F 56% 29.87 in 10.0 mi North 13.8 mph 21.9 mph N/A   Unknown
4:56 PM 64.4 °F 48.2 °F 56% 29.87 in 10.0 mi North 11.5 mph 20.7 mph N/A   Unknown
5:16 PM 64.4 °F 48.2 °F 56% 29.87 in 10.0 mi North 12.7 mph 20.7 mph N/A   Unknown
5:36 PM 64.4 °F 48.2 °F 56% 29.87 in 10.0 mi North 12.7 mph 19.6 mph N/A   Unknown
5:56 PM 62.6 °F 48.2 °F 59% 29.87 in 10.0 mi NNE 13.8 mph 23.0 mph N/A   Unknown
6:16 PM 62.6 °F 48.2 °F 59% 29.87 in 10.0 mi North 12.7 mph 20.7 mph N/A   Unknown
6:36 PM 62.6 °F 48.2 °F 59% 29.86 in 10.0 mi NNE 12.7 mph 21.9 mph N/A   Unknown
6:56 PM 62.6 °F 48.2 °F 59% 29.86 in 10.0 mi North 12.7 mph 19.6 mph N/A   Unknown
7:16 PM 60.8 °F 48.2 °F 63% 29.86 in 10.0 mi North 10.4 mph 18.4 mph N/A   Unknown
7:36 PM 60.8 °F 48.2 °F 63% 29.87 in 10.0 mi North 10.4 mph 17.3 mph N/A   Unknown
7:56 PM 60.8 °F 48.2 °F 63% 29.87 in 10.0 mi North 11.5 mph 17.3 mph N/A   Unknown
8:16 PM 60.8 °F 48.2 °F 63% 29.87 in 10.0 mi North 6.9 mph 16.1 mph N/A   Unknown
8:36 PM 59.0 °F 48.2 °F 67% 29.88 in 10.0 mi North 6.9 mph - N/A   Unknown
8:56 PM 59.0 °F 48.2 °F 67% 29.88 in 10.0 mi North 6.9 mph - N/A   Unknown
9:16 PM 57.2 °F 48.2 °F 72% 29.88 in 10.0 mi North 5.8 mph - N/A   Unknown
9:36 PM 57.2 °F 48.2 °F 72% 29.88 in 10.0 mi North 5.8 mph - N/A   Unknown
9:56 PM 57.2 °F 48.2 °F 72% 29.88 in 10.0 mi North 6.9 mph - N/A   Unknown
10:16 PM 57.2 °F 48.2 °F 72% 29.88 in 10.0 mi North 5.8 mph - N/A   Unknown
10:36 PM 57.2 °F 46.4 °F 67% 29.89 in 10.0 mi Calm Calm - N/A   Unknown
10:56 PM 55.4 °F 46.4 °F 72% 29.89 in 10.0 mi Calm Calm - N/A   Unknown
11:16 PM 57.2 °F 46.4 °F 67% 29.89 in 10.0 mi Calm Calm - N/A   Unknown
11:36 PM 57.2 °F 46.4 °F 67% 29.89 in 10.0 mi WNW 4.6 mph - N/A   Unknown
11:56 PM 57.2 °F 46.4 °F 67% 29.89 in 10.0 mi Calm Calm - N/A   Unknown